Estación de Sagrada Familia

Ultimos registro cada 15 minutos 31
Estación Fecha / Hora Temperatura Humedad Lluvia Velocidad Dirección Radiación Presion
31 Sagrada Familia 09-05-2026 07:30 4,7 93 0 0 346 0 1018,6
30 Sagrada Familia 09-05-2026 07:15 4,7 92 0 0 346 0 1018,5
29 Sagrada Familia 09-05-2026 07:00 4,9 91 0 0 346 0 1018,6
28 Sagrada Familia 09-05-2026 06:45 5,3 91 0 0 346 0 1018,8
27 Sagrada Familia 09-05-2026 06:30 5,7 91 0 0 346 0 1018,9
26 Sagrada Familia 09-05-2026 06:15 6,2 91 0 0 346 0 1019
25 Sagrada Familia 09-05-2026 06:00 6,6 91 0 0 346 0 1019,1
24 Sagrada Familia 09-05-2026 05:45 7,1 90 0 0 342 0 1019,2
23 Sagrada Familia 09-05-2026 05:30 7,9 89 0 0 342 0 1018,9
22 Sagrada Familia 09-05-2026 05:15 8,4 90 0 0,4 308 0 1018,9
21 Sagrada Familia 09-05-2026 05:00 8,7 90 0 0 308 0 1018,9
20 Sagrada Familia 09-05-2026 04:45 9 89 0 0 306 0 1019,1
19 Sagrada Familia 09-05-2026 04:30 9,2 89 0 0 306 0 1019,2
18 Sagrada Familia 09-05-2026 04:15 9,5 89 0 0 298 0 1019,3
17 Sagrada Familia 09-05-2026 04:00 9,9 88 0 0,4 298 0 1019,2
16 Sagrada Familia 09-05-2026 03:45 10,2 89 0 0 26 0 1019,4
15 Sagrada Familia 09-05-2026 03:30 10,2 89 0 0 358 0 1019,6
14 Sagrada Familia 09-05-2026 03:15 10,3 89 0 0 304 0 1019,7
13 Sagrada Familia 09-05-2026 03:00 10,3 89 0 0 219 0 1019,7
12 Sagrada Familia 09-05-2026 02:45 10,4 89 0 0 220 0 1019,8
11 Sagrada Familia 09-05-2026 02:30 10,5 89 0 0 329 0 1019,6
10 Sagrada Familia 09-05-2026 02:15 10,6 88 0 0 173 0 1020
9 Sagrada Familia 09-05-2026 02:00 10,8 88 0 0 306 0 1020
8 Sagrada Familia 09-05-2026 01:45 11,1 88 0 0 202 0 1020
7 Sagrada Familia 09-05-2026 01:30 11,2 88 0 0,4 281 0 1020
6 Sagrada Familia 09-05-2026 01:15 11,3 88 0 0,4 237 0 1020,1
5 Sagrada Familia 09-05-2026 01:00 11,3 88 0 0 219 0 1020
4 Sagrada Familia 09-05-2026 00:45 11,4 88 0 0 261 0 1020,1
3 Sagrada Familia 09-05-2026 00:30 11,4 88 0 0 168 0 1020
2 Sagrada Familia 09-05-2026 00:15 11,3 89 0 0 168 0 1020
1 Sagrada Familia 09-05-2026 00:00 11,3 89 0 0 269 0 1020